Theta_e
288 288 288 288 288 288 287 287 287 287 286 286 285 285 285 284 284 285 285 284 284 284 284 284 283 283 283 283 283 283 283 283 283 283 283 283 282 282 283 283 283 283
289 288 288 288 288 288 288 287 287 286 286 285 285 284 284 284 284 284 284 284 284 283 283 283 283 283 283 283 283 283 282 282 282 282 282 282 282 282 282 282 282 282
288 288 288 288 288 288 288 287 287 286 286 285 285 285 284 284 284 284 283 283 283 283 282 282 282 282 282 282 282 282 282 282 282 282 282 282 281 282 282 282 281 281
288 288 288 288 288 288 288 287 287 286 285 285 285 284 284 284 283 283 283 283 283 282 282 282 282 282 282 282 282 281 281 281 281 281 281 281 281 281 281 281 281 280
288 288 288 287 287 287 287 287 286 285 285 284 284 284 283 283 283 283 282 282 282 282 282 281 281 281 281 281 281 281 281 281 281 281 281 280 280 280 280 280 280 280
287 287 287 287 287 287 286 286 285 285 284 284 283 283 283 282 282 282 282 282 281 281 281 281 281 281 281 281 280 280 280 280 280 280 280 280 280 279 279 279 279 279
287 287 287 287 287 286 286 285 284 284 283 283 282 282 282 282 281 281 281 281 280 280 280 280 280 280 280 280 280 280 280 280 280 279 279 279 278 278 278 278 278 278
287 287 287 286 286 285 285 284 284 283 282 282 282 282 281 281 281 280 280 280 280 280 280 280 279 279 279 279 279 279 279 279 279 279 278 278 278 277 277 277 277 277
287 286 286 286 285 285 284 284 283 283 282 282 282 281 281 281 280 280 280 280 279 279 279 279 279 279 279 279 279 279 278 278 278 278 278 277 277 276 276 276 276 276
286 286 286 285 285 284 284 283 283 283 283 282 282 281 281 280 280 280 279 279 279 279 279 278 278 278 278 278 278 278 278 278 278 278 277 277 276 275 275 275 275 276
286 285 285 284 284 284 284 283 283 283 283 282 282 281 281 280 280 279 279 278 278 278 278 278 278 278 278 277 277 277 277 277 277 276 276 275 275 274 274 274 275 275
285 285 284 284 284 283 283 283 283 283 283 282 282 281 280 280 279 279 278 278 278 277 277 277 277 277 277 277 277 277 277 276 276 275 275 274 274 274 274 274 274 274
285 285 284 284 283 283 283 283 283 283 283 282 282 281 280 279 279 278 278 277 277 277 277 277 277 277 276 276 276 276 275 275 274 274 273 273 273 274 274 274 274 273
285 284 284 284 283 283 283 283 283 283 283 282 281 281 280 279 278 278 277 277 277 277 276 276 276 276 276 275 275 275 275 274 273 272 272 273 273 273 273 273 273 273
285 284 284 283 283 283 283 283 283 283 282 282 281 280 280 279 278 278 277 277 276 276 276 276 276 276 275 275 275 275 274 273 272 271 272 273 273 273 273 273 272 272
284 284 284 283 283 283 282 283 283 282 282 281 280 280 279 278 278 277 277 276 276 276 276 276 276 275 275 275 274 274 274 272 272 272 272 272 272 273 272 272 272 272
284 284 284 283 283 282 282 282 282 282 281 280 280 279 278 278 277 277 276 276 276 275 275 275 275 275 275 275 274 274 273 272 271 272 272 272 272 272 272 272 272 271
284 284 283 283 282 282 282 283 282 281 280 279 279 278 278 277 277 276 276 275 275 275 275 275 275 274 274 274 274 273 273 272 271 271 272 272 272 272 272 271 271 270
284 284 283 282 282 282 283 282 282 280 279 278 278 277 277 276 276 275 275 275 275 275 274 274 274 274 274 274 273 273 273 272 271 271 271 271 271 271 271 270 270 270
284 283 282 282 282 282 282 282 281 279 278 277 277 277 276 276 275 275 275 274 274 274 274 274 274 274 273 273 273 273 272 271 271 271 271 270 270 270 270 270 269 269
284 283 282 282 282 282 281 281 280 278 277 277 276 276 276 275 275 274 274 274 274 273 273 273 273 273 273 273 273 272 271 270 270 270 270 269 270 269 269 269 269 269
283 283 282 282 282 281 281 280 279 277 277 276 276 276 275 275 274 274 273 273 273 273 273 273 273 273 273 272 272 271 270 269 269 269 269 269 269 269 269 269 269 269
283 283 282 282 281 281 280 279 278 277 276 276 276 275 275 274 274 273 273 273 273 272 272 272 273 272 272 272 271 271 270 268 269 269 269 269 269 269 269 269 269 270
283 282 282 281 280 280 279 278 278 277 276 276 275 275 274 274 273 273 272 272 272 272 272 272 272 272 272 272 271 270 269 268 269 269 269 269 269 269 269 270 270 270
282 282 281 280 280 279 279 278 277 276 276 275 275 274 273 273 272 272 272 272 272 272 271 271 272 272 271 271 271 270 269 269 269 269 269 269 269 269 270 270 270 271
282 281 281 280 279 279 278 278 277 276 275 275 274 273 273 272 272 272 271 271 271 271 271 271 271 271 271 271 270 269 268 269 270 270 270 270 270 270 270 271 271 271
Wind_Speed
25 25 25 24 23 22 21 20 20 19 19 18 17 17 16 16 15 15 15 15 16 16 16 16 17 17 17 17 17 17 18 18 18 18 18 18 17 17 17 17 16 15
23 22 22 22 21 20 19 19 18 18 17 16 16 15 15 14 15 15 15 15 15 15 16 16 16 17 17 17 17 17 17 18 18 18 19 18 18 17 18 18 17 18
21 20 20 19 19 18 17 16 16 16 15 15 14 14 14 14 14 14 14 15 15 15 16 17 17 18 18 18 19 18 18 18 19 19 19 18 18 18 18 18 18 18
18 18 17 17 16 15 14 14 14 14 13 13 13 12 13 12 12 13 13 14 14 15 16 16 17 17 18 19 19 19 19 19 19 20 20 19 18 18 19 18 17 18
16 15 15 14 13 12 11 11 11 11 11 11 11 10 10 10 11 12 12 13 14 14 15 16 16 17 17 18 18 18 18 18 19 20 20 19 18 18 19 18 18 18
14 13 12 11 10 9 9 9 9 9 9 10 9 9 10 10 10 11 12 12 13 14 15 15 16 17 17 18 18 18 18 18 19 20 20 19 19 19 19 19 18 18
12 11 10 9 8 7 7 8 8 8 8 8 8 8 9 9 10 10 11 12 13 13 14 15 16 17 18 18 19 19 19 19 20 20 20 19 19 19 19 18 18 16
10 9 8 7 6 6 6 7 7 7 7 8 8 9 10 10 11 12 13 13 14 15 15 16 17 17 18 18 18 19 19 20 20 20 20 19 19 19 19 18 17 15
9 8 7 6 5 5 5 5 6 7 8 10 10 11 12 12 13 14 14 15 15 16 16 16 17 17 18 18 18 18 19 19 19 19 19 19 19 19 18 18 16 14
9 8 7 5 4 3 3 5 7 8 9 10 10 11 12 12 13 14 14 14 15 15 16 16 16 17 17 17 18 18 18 18 19 19 19 19 19 19 17 16 14 13
10 9 7 6 4 3 3 5 7 8 8 9 10 10 11 12 13 13 13 14 14 14 15 15 16 16 17 17 17 17 18 18 19 19 19 19 19 18 16 14 12 12
11 10 8 6 4 2 3 4 5 7 8 9 10 11 12 13 14 14 14 14 14 15 15 15 16 16 16 17 17 17 18 18 19 19 19 19 19 16 14 13 13 13
13 11 8 6 4 2 2 3 5 7 9 10 11 12 13 14 14 15 15 15 15 15 15 15 15 16 16 17 17 17 18 18 19 19 19 19 17 15 14 14 14 14
14 11 9 6 4 2 1 3 5 7 9 10 12 13 14 14 15 15 15 16 15 15 15 15 15 16 16 17 17 18 17 18 19 19 19 17 14 12 13 13 13 14
14 11 9 6 3 1 1 3 6 8 9 10 12 13 14 15 15 16 16 16 16 16 15 15 15 15 16 16 16 17 17 18 20 19 17 16 13 11 11 12 13 14
14 11 9 6 3 2 2 4 6 8 9 11 12 13 14 15 15 16 16 15 15 16 15 15 15 15 15 15 15 15 16 17 19 18 15 14 13 12 11 12 13 13
14 11 8 6 4 3 2 5 7 9 10 11 12 13 14 15 15 15 15 15 15 15 15 15 15 15 15 15 14 14 15 16 17 17 14 12 13 13 12 12 13 14
14 11 8 6 5 3 4 6 8 9 10 11 12 13 14 14 15 15 15 15 15 16 16 15 15 15 15 15 14 13 14 15 15 15 13 12 13 13 13 13 15 16
14 11 9 7 4 3 5 7 9 10 11 11 12 13 14 15 15 15 15 15 16 16 16 15 15 15 15 15 15 14 14 14 14 14 14 13 14 13 13 13 15 16
14 11 9 7 5 5 6 8 9 10 11 12 13 14 15 15 15 16 15 15 16 17 17 16 15 15 15 15 15 15 14 13 14 15 14 14 13 12 12 13 14 15
14 12 9 7 6 6 7 9 10 11 12 13 13 14 15 16 16 17 16 16 16 17 18 17 15 15 16 15 15 15 14 13 14 15 14 13 13 12 12 13 14 15
15 12 10 8 8 8 8 9 10 11 12 13 14 15 16 16 16 17 17 17 17 17 18 18 16 15 16 16 15 14 13 13 14 13 12 13 13 13 13 13 14 16
15 13 11 9 9 9 9 10 11 12 13 14 15 16 16 17 17 17 17 17 17 17 18 19 17 16 16 15 14 13 12 13 13 12 12 13 14 14 15 14 14 16
16 13 12 11 10 10 10 10 11 12 13 14 15 17 17 17 18 18 18 18 17 17 18 19 19 17 15 15 14 12 11 12 12 12 13 14 14 15 15 15 17 19
16 14 13 12 11 10 10 10 12 12 13 15 16 17 18 18 18 19 19 18 17 17 17 18 19 17 15 15 14 12 10 11 12 13 14 15 15 16 18 20 22 23
17 15 13 12 11 10 10 11 12 13 14 15 16 17 18 18 18 18 19 19 17 17 17 17 18 18 16 15 14 11 10 11 12 13 15 16 17 20 23 25 24 22
Wind_Direction
104 101 98 94 91 87 84 80 75 72 70 66 63 58 53 49 45 41 38 35 32 30 27 25 22 20 19 16 15 17 15 13 12 9 9 9 6 4 1 358 357 353
103 100 96 93 89 85 81 77 72 69 65 62 59 54 48 43 40 36 33 31 28 25 23 21 18 16 15 13 12 12 10 8 7 5 4 4 1 359 356 353 351 349
103 99 95 91 87 82 76 70 66 62 58 54 51 45 40 36 32 28 26 24 22 19 17 15 13 11 9 8 9 9 7 5 3 2 1 359 356 354 352 350 346 344
105 99 95 89 84 78 72 66 61 57 53 50 46 41 35 31 26 23 20 18 17 14 12 10 8 6 4 4 5 4 3 1 358 357 358 356 352 349 348 346 342 340
108 102 96 91 86 79 71 65 61 57 53 49 45 39 33 28 22 19 15 13 12 9 8 6 4 2 1 0 1 1 359 358 354 353 354 352 348 345 343 342 338 336
113 107 101 95 88 80 69 64 61 57 53 46 41 35 28 23 19 15 12 10 8 7 5 3 2 0 360 359 359 358 357 355 352 352 351 349 345 342 340 339 335 332
121 114 107 100 91 80 69 63 59 53 49 43 37 31 25 20 17 13 12 10 7 6 3 1 1 359 358 358 357 356 354 352 351 350 348 345 341 340 338 335 331 326
132 125 118 111 98 80 69 62 57 51 45 38 31 24 18 15 13 10 9 7 5 3 2 1 359 357 356 356 355 353 351 350 348 346 344 341 339 337 334 332 328 321
146 142 135 124 105 87 76 66 56 45 35 27 21 15 10 8 6 4 2 1 0 360 360 359 357 355 354 353 352 351 349 347 344 342 341 339 336 334 331 329 326 318
162 156 149 140 128 108 82 60 45 34 26 18 12 7 3 360 358 357 357 356 356 356 356 356 354 352 352 351 350 348 346 343 341 340 339 337 334 331 328 324 321 314
173 167 163 160 150 121 75 52 38 28 18 10 5 360 356 355 353 352 353 353 353 353 354 354 352 350 349 349 348 345 343 341 340 338 336 334 332 329 324 320 316 311
180 177 175 173 163 131 81 52 32 19 9 1 357 354 352 351 350 349 349 350 350 351 353 352 350 348 348 347 345 343 341 339 338 335 332 331 329 324 319 315 313 311
185 184 183 180 172 144 81 38 18 6 359 354 350 349 348 347 346 345 345 346 347 348 350 350 349 347 347 345 343 342 340 336 333 331 328 326 323 318 316 314 311 310
189 189 189 187 181 152 46 13 3 356 351 347 344 343 342 341 341 340 340 341 341 343 347 348 347 346 346 344 342 341 337 331 329 328 326 322 316 311 311 308 305 306
192 193 193 192 188 186 349 353 351 347 343 340 338 337 336 335 335 335 336 337 337 339 343 346 345 344 343 342 341 338 333 328 326 324 320 315 309 305 304 302 301 301
193 196 197 197 204 236 308 340 341 338 335 333 332 330 330 330 330 330 332 332 334 336 339 343 342 340 339 339 338 334 328 324 321 317 312 306 304 304 302 301 300 297
196 198 200 206 217 244 309 335 332 328 326 326 326 325 325 326 326 327 328 329 331 332 336 341 340 336 336 335 333 329 324 319 314 310 304 299 300 302 300 301 301 300
199 200 204 215 224 256 314 326 321 319 319 320 321 321 322 323 323 324 326 327 328 330 334 338 337 334 332 331 328 326 321 315 309 304 300 296 297 298 298 300 302 301
201 204 209 218 231 278 307 312 309 310 313 314 316 319 320 321 321 322 325 328 328 329 331 335 336 332 329 328 326 322 320 315 307 300 295 293 294 294 294 297 299 301
204 208 213 223 244 279 293 298 301 305 308 310 314 317 318 320 320 321 325 328 329 328 329 333 335 329 326 327 324 320 320 316 304 297 292 290 290 290 291 293 295 297
208 211 216 230 252 271 283 290 296 300 304 309 314 316 317 318 319 321 324 327 328 327 326 330 333 329 325 324 322 320 319 310 299 295 290 288 289 289 288 290 292 293
210 214 221 236 252 264 276 284 292 298 303 309 313 314 315 316 317 319 322 324 327 327 324 326 331 328 323 321 320 319 315 305 298 294 289 287 289 289 288 288 288 290
213 217 226 238 249 260 270 280 290 297 302 308 311 311 311 314 315 317 320 323 327 327 324 324 328 328 323 320 320 318 313 304 298 293 290 289 290 290 291 289 287 286
215 221 230 239 247 256 268 282 291 297 303 306 307 307 309 312 314 316 318 322 326 327 325 322 324 326 322 318 318 318 313 304 297 291 290 291 292 292 290 288 286 286
218 224 232 238 247 259 272 284 291 296 300 303 303 305 307 310 313 315 317 320 324 325 324 321 320 321 319 317 317 317 312 303 296 292 290 290 291 292 292 292 293 293
219 226 233 239 250 264 274 282 289 293 296 299 300 302 304 307 311 313 313 317 321 322 323 320 316 316 317 316 315 317 313 302 295 291 291 291 291 292 294 297 298 296